Time,TemperatureF,DewpointF,PressureIn,WindDirection,WindDirectionDegrees,WindSpeedMPH,WindSpeedGustMPH,Humidity,HourlyPrecipIn,Conditions,Clouds,dailyrainin,SoftwareType,DateUTC
2013-11-14 00:01:00,32.1,21.0,30.25,SSW,203,3.0,10.0,63,0.00,,,0.00,weatherlink.com 1.10,2013-11-14 05:01:00,
2013-11-14 00:16:00,31.8,20.0,30.25,West,276,0.0,3.0,63,0.00,,,0.00,weatherlink.com 1.10,2013-11-14 05:16:00,
2013-11-14 00:31:00,31.7,20.0,30.25,ESE,115,1.0,6.0,63,0.00,,,0.00,weatherlink.com 1.10,2013-11-14 05:31:00,
2013-11-14 00:46:00,31.5,20.0,30.26,West,263,0.0,4.0,63,0.00,,,0.00,weatherlink.com 1.10,2013-11-14 05:46:00,
2013-11-14 01:01:00,31.4,20.0,30.26,WSW,255,1.0,5.0,64,0.00,,,0.00,weatherlink.com 1.10,2013-11-14 06:01:00,
2013-11-14 01:16:00,31.4,20.0,30.25,West,270,1.0,6.0,63,0.00,,,0.00,weatherlink.com 1.10,2013-11-14 06:16:00,
2013-11-14 01:31:00,31.5,20.0,30.25,SW,228,2.0,10.0,63,0.00,,,0.00,weatherlink.com 1.10,2013-11-14 06:31:00,
2013-11-14 01:46:00,31.4,20.0,30.25,NW,307,0.0,7.0,64,0.00,,,0.00,weatherlink.com 1.10,2013-11-14 06:46:00,
2013-11-14 02:01:00,31.2,21.0,30.24,WSW,248,2.0,5.0,65,0.00,,,0.00,weatherlink.com 1.10,2013-11-14 07:01:00,
2013-11-14 02:16:00,31.3,21.0,30.24,SE,134,3.0,6.0,65,0.00,,,0.00,weatherlink.com 1.10,2013-11-14 07:16:00,
2013-11-14 02:32:00,31.4,20.0,30.23,WNW,295,4.0,6.0,64,0.00,,,0.00,weatherlink.com 1.10,2013-11-14 07:32:00,
2013-11-14 02:47:00,31.6,20.0,30.23,WSW,239,2.0,8.0,63,0.00,,,0.00,weatherlink.com 1.10,2013-11-14 07:47:00,
2013-11-14 03:02:00,31.8,20.0,30.23,SW,225,4.0,10.0,63,0.00,,,0.00,weatherlink.com 1.10,2013-11-14 08:02:00,
2013-11-14 03:17:00,31.9,20.0,30.23,WNW,284,0.0,6.0,62,0.00,,,0.00,weatherlink.com 1.10,2013-11-14 08:17:00,
2013-11-14 03:32:00,31.8,20.0,30.22,NE,54,2.0,10.0,63,0.00,,,0.00,weatherlink.com 1.10,2013-11-14 08:32:00,
2013-11-14 03:47:00,31.7,20.0,30.22,SW,232,0.0,6.0,63,0.00,,,0.00,weatherlink.com 1.10,2013-11-14 08:47:00,
2013-11-14 04:02:00,31.6,20.0,30.21,NW,308,1.0,8.0,63,0.00,,,0.00,weatherlink.com 1.10,2013-11-14 09:02:00,
2013-11-14 04:17:00,31.7,20.0,30.21,West,277,1.0,7.0,63,0.00,,,0.00,weatherlink.com 1.10,2013-11-14 09:17:00,
2013-11-14 04:32:00,32.0,20.0,30.20,WSW,252,2.0,8.0,62,0.00,,,0.00,weatherlink.com 1.10,2013-11-14 09:32:00,
2013-11-14 04:47:00,32.2,20.0,30.20,West,264,0.0,16.0,61,0.00,,,0.00,weatherlink.com 1.10,2013-11-14 09:47:00,
2013-11-14 05:02:00,32.4,20.0,30.20,South,188,3.0,10.0,61,0.00,,,0.00,weatherlink.com 1.10,2013-11-14 10:02:00,
2013-11-14 05:17:00,32.5,20.0,30.20,West,262,3.0,5.0,61,0.00,,,0.00,weatherlink.com 1.10,2013-11-14 10:17:00,
2013-11-14 05:32:00,32.7,20.0,30.19,WSW,243,2.0,11.0,61,0.00,,,0.00,weatherlink.com 1.10,2013-11-14 10:32:00,
2013-11-14 05:47:00,32.7,20.0,30.18,West,262,2.0,10.0,61,0.00,,,0.00,weatherlink.com 1.10,2013-11-14 10:47:00,
2013-11-14 06:02:00,32.8,21.0,30.17,NE,48,1.0,7.0,61,0.00,,,0.00,weatherlink.com 1.10,2013-11-14 11:02:00,
2013-11-14 06:17:00,32.8,21.0,30.17,South,191,1.0,8.0,61,0.00,,,0.00,weatherlink.com 1.10,2013-11-14 11:17:00,
2013-11-14 06:32:00,32.8,21.0,30.17,West,267,4.0,7.0,61,0.00,,,0.00,weatherlink.com 1.10,2013-11-14 11:32:00,
2013-11-14 06:47:00,32.8,21.0,30.16,NNE,32,1.0,7.0,61,0.00,,,0.00,weatherlink.com 1.10,2013-11-14 11:47:00,
2013-11-14 07:02:00,32.9,21.0,30.15,SW,214,4.0,6.0,61,0.00,,,0.00,weatherlink.com 1.10,2013-11-14 12:02:00,
2013-11-14 07:17:00,33.0,21.0,30.15,SSW,198,1.0,10.0,61,0.00,,,0.00,weatherlink.com 1.10,2013-11-14 12:17:00,
2013-11-14 07:32:00,33.1,21.0,30.16,West,269,0.0,9.0,61,0.00,,,0.00,weatherlink.com 1.10,2013-11-14 12:32:00,
2013-11-14 07:47:00,33.1,21.0,30.16,SSW,210,5.0,9.0,61,0.00,,,0.00,weatherlink.com 1.10,2013-11-14 12:47:00,
2013-11-14 08:02:00,33.1,21.0,30.16,West,271,4.0,7.0,61,0.00,,,0.00,weatherlink.com 1.10,2013-11-14 13:02:00,
2013-11-14 08:17:00,33.3,21.0,30.16,WSW,253,0.0,7.0,61,0.00,,,0.00,weatherlink.com 1.10,2013-11-14 13:17:00,
2013-11-14 08:32:00,33.7,21.0,30.16,SW,229,4.0,11.0,60,0.00,,,0.00,weatherlink.com 1.10,2013-11-14 13:32:00,
2013-11-14 08:47:00,34.4,21.0,30.16,West,280,2.0,11.0,59,0.00,,,0.00,weatherlink.com 1.10,2013-11-14 13:47:00,
2013-11-14 09:02:00,35.3,22.0,30.16,WSW,238,1.0,9.0,58,0.00,,,0.00,weatherlink.com 1.10,2013-11-14 14:02:00,
2013-11-14 09:17:00,36.6,22.0,30.16,SW,219,3.0,9.0,57,0.00,,,0.00,weatherlink.com 1.10,2013-11-14 14:17:00,
2013-11-14 09:32:00,37.4,22.0,30.16,WNW,290,6.0,8.0,54,0.00,,,0.00,weatherlink.com 1.10,2013-11-14 14:32:00,
2013-11-14 09:47:00,38.0,23.0,30.15,SW,219,2.0,12.0,54,0.00,,,0.00,weatherlink.com 1.10,2013-11-14 14:47:00,
2013-11-14 10:02:00,38.7,23.0,30.15,East,91,2.0,9.0,54,0.00,,,0.00,weatherlink.com 1.10,2013-11-14 15:02:00,
2013-11-14 10:17:00,39.4,23.0,30.15,ENE,77,3.0,9.0,53,0.00,,,0.00,weatherlink.com 1.10,2013-11-14 15:17:00,
2013-11-14 10:33:00,40.1,24.0,30.14,West,266,4.0,11.0,52,0.00,,,0.00,weatherlink.com 1.10,2013-11-14 15:33:00,
2013-11-14 10:48:00,40.5,24.0,30.14,West,261,6.0,11.0,53,0.00,,,0.00,weatherlink.com 1.10,2013-11-14 15:48:00,
2013-11-14 11:03:00,40.9,24.0,30.14,West,263,5.0,8.0,51,0.00,,,0.00,weatherlink.com 1.10,2013-11-14 16:03:00,
2013-11-14 11:18:00,41.5,24.0,30.13,SW,224,0.0,13.0,51,0.00,,,0.00,weatherlink.com 1.10,2013-11-14 16:18:00,
2013-11-14 11:33:00,42.3,25.0,30.13,SW,222,6.0,12.0,50,0.00,,,0.00,weatherlink.com 1.10,2013-11-14 16:33:00,
2013-11-14 11:48:00,43.0,25.0,30.12,South,170,2.0,11.0,49,0.00,,,0.00,weatherlink.com 1.10,2013-11-14 16:48:00,
2013-11-14 12:03:00,43.4,25.0,30.11,West,281,3.0,11.0,48,0.00,,,0.00,weatherlink.com 1.10,2013-11-14 17:03:00,
2013-11-14 12:18:00,44.0,25.0,30.10,WSW,250,4.0,10.0,47,0.00,,,0.00,weatherlink.com 1.10,2013-11-14 17:18:00,
2013-11-14 12:33:00,44.4,25.0,30.09,South,191,2.0,14.0,47,0.00,,,0.00,weatherlink.com 1.10,2013-11-14 17:33:00,
2013-11-14 12:48:00,45.3,25.0,30.09,North,8,7.0,10.0,46,0.00,,,0.00,weatherlink.com 1.10,2013-11-14 17:48:00,
2013-11-14 13:03:00,45.8,25.0,30.08,WSW,252,2.0,12.0,45,0.00,,,0.00,weatherlink.com 1.10,2013-11-14 18:03:00,
2013-11-14 13:18:00,46.7,27.0,30.08,SE,134,1.0,10.0,46,0.00,,,0.00,weatherlink.com 1.10,2013-11-14 18:18:00,
2013-11-14 13:33:00,47.1,26.0,30.07,South,173,2.0,12.0,44,0.00,,,0.00,weatherlink.com 1.10,2013-11-14 18:33:00,
2013-11-14 13:48:00,47.5,27.0,30.07,SSW,208,4.0,7.0,45,0.00,,,0.00,weatherlink.com 1.10,2013-11-14 18:48:00,
2013-11-14 14:03:00,47.8,27.0,30.06,West,277,1.0,10.0,44,0.00,,,0.00,weatherlink.com 1.10,2013-11-14 19:03:00,
2013-11-14 14:18:00,48.4,27.0,30.06,ENE,75,8.0,12.0,43,0.00,,,0.00,weatherlink.com 1.10,2013-11-14 19:18:00,
2013-11-14 14:33:00,48.7,27.0,30.05,WSW,246,2.0,9.0,43,0.00,,,0.00,weatherlink.com 1.10,2013-11-14 19:33:00,
2013-11-14 14:48:00,49.6,28.0,30.04,WSW,255,3.0,8.0,43,0.00,,,0.00,weatherlink.com 1.10,2013-11-14 19:48:00,
2013-11-14 15:03:00,49.8,27.0,30.03,South,178,3.0,12.0,42,0.00,,,0.00,weatherlink.com 1.10,2013-11-14 20:03:00,
2013-11-14 15:18:00,49.8,28.0,30.02,South,191,1.0,8.0,43,0.00,,,0.00,weatherlink.com 1.10,2013-11-14 20:18:00,
2013-11-14 15:33:00,50.0,29.0,30.03,SE,141,5.0,7.0,44,0.00,,,0.00,weatherlink.com 1.10,2013-11-14 20:33:00,
2013-11-14 15:48:00,49.6,27.0,30.02,SSW,198,2.0,8.0,42,0.00,,,0.00,weatherlink.com 1.10,2013-11-14 20:48:00,
2013-11-14 16:03:00,49.4,27.0,30.02,SW,225,3.0,10.0,42,0.00,,,0.00,weatherlink.com 1.10,2013-11-14 21:03:00,
2013-11-14 16:18:00,48.6,27.0,30.02,West,273,0.0,7.0,44,0.00,,,0.00,weatherlink.com 1.10,2013-11-14 21:18:00,
2013-11-14 16:34:00,48.2,28.0,30.01,SSE,167,1.0,-999.0,45,-99.99,,,0.00,weatherlink.com 1.10,2013-11-14 21:34:00,
2013-11-14 16:49:00,47.8,27.0,30.02,West,259,0.0,7.0,45,0.00,,,0.00,weatherlink.com 1.10,2013-11-14 21:49:00,
2013-11-14 17:04:00,47.3,27.0,30.02,SSE,159,5.0,7.0,46,0.00,,,0.00,weatherlink.com 1.10,2013-11-14 22:04:00,
2013-11-14 17:19:00,46.8,27.0,30.02,SSE,162,1.0,7.0,47,0.00,,,0.00,weatherlink.com 1.10,2013-11-14 22:19:00,
2013-11-14 17:34:00,46.0,27.0,30.01,South,178,2.0,5.0,47,0.00,,,0.00,weatherlink.com 1.10,2013-11-14 22:34:00,
2013-11-14 17:49:00,45.9,27.0,30.02,East,79,3.0,5.0,47,0.00,,,0.00,weatherlink.com 1.10,2013-11-14 22:49:00,
2013-11-14 18:04:00,45.3,26.0,30.02,NNE,22,1.0,3.0,48,0.00,,,0.00,weatherlink.com 1.10,2013-11-14 23:04:00,
2013-11-14 18:19:00,45.2,26.0,30.03,SW,217,0.0,4.0,47,0.00,,,0.00,weatherlink.com 1.10,2013-11-14 23:19:00,
2013-11-14 18:34:00,45.2,26.0,30.03,SSW,200,3.0,6.0,47,0.00,,,0.00,weatherlink.com 1.10,2013-11-14 23:34:00,
2013-11-14 18:49:00,45.3,25.0,30.03,SW,226,5.0,7.0,45,0.00,,,0.00,weatherlink.com 1.10,2013-11-14 23:49:00,
2013-11-14 19:04:00,45.6,25.0,30.03,SW,228,0.0,7.0,44,0.00,,,0.00,weatherlink.com 1.10,2013-11-15 00:04:00,
2013-11-14 19:19:00,45.1,24.0,30.04,South,172,4.0,4.0,44,0.00,,,0.00,weatherlink.com 1.10,2013-11-15 00:19:00,
2013-11-14 19:34:00,45.2,24.0,30.04,SSE,159,2.0,8.0,44,0.00,,,0.00,weatherlink.com 1.10,2013-11-15 00:34:00,
2013-11-14 19:49:00,44.8,24.0,30.04,WSW,248,3.0,5.0,45,0.00,,,0.00,weatherlink.com 1.10,2013-11-15 00:49:00,
2013-11-14 20:04:00,44.6,25.0,30.04,SW,224,0.0,6.0,46,0.00,,,0.00,weatherlink.com 1.10,2013-11-15 01:04:00,
2013-11-14 20:19:00,44.5,24.0,30.05,SE,139,1.0,6.0,45,0.00,,,0.00,weatherlink.com 1.10,2013-11-15 01:19:00,
2013-11-14 20:34:00,44.3,24.0,30.05,West,281,2.0,7.0,45,0.00,,,0.00,weatherlink.com 1.10,2013-11-15 01:34:00,
2013-11-14 20:49:00,44.4,24.0,30.05,West,265,1.0,8.0,45,0.00,,,0.00,weatherlink.com 1.10,2013-11-15 01:49:00,
2013-11-14 21:04:00,44.5,24.0,30.05,South,181,2.0,9.0,45,0.00,,,0.00,weatherlink.com 1.10,2013-11-15 02:04:00,
2013-11-14 21:19:00,44.5,24.0,30.05,SW,228,3.0,9.0,45,0.00,,,0.00,weatherlink.com 1.10,2013-11-15 02:19:00,
2013-11-14 21:34:00,44.3,25.0,30.05,WSW,246,4.0,9.0,46,0.00,,,0.00,weatherlink.com 1.10,2013-11-15 02:34:00,
2013-11-14 21:49:00,44.3,25.0,30.05,WNW,285,2.0,10.0,46,0.00,,,0.00,weatherlink.com 1.10,2013-11-15 02:49:00,
2013-11-14 22:04:00,43.8,25.0,30.05,NW,308,1.0,7.0,47,0.00,,,0.00,weatherlink.com 1.10,2013-11-15 03:04:00,
2013-11-14 22:19:00,43.9,24.0,30.05,West,277,2.0,10.0,46,0.00,,,0.00,weatherlink.com 1.10,2013-11-15 03:19:00,
2013-11-14 22:34:00,43.7,24.0,30.05,SW,225,1.0,9.0,47,0.00,,,0.00,weatherlink.com 1.10,2013-11-15 03:34:00,
2013-11-14 22:49:00,43.6,25.0,30.04,NNW,328,3.0,8.0,48,0.00,,,0.00,weatherlink.com 1.10,2013-11-15 03:49:00,
2013-11-14 23:04:00,43.5,25.0,30.04,ESE,123,4.0,12.0,48,0.00,,,0.00,weatherlink.com 1.10,2013-11-15 04:04:00,
2013-11-14 23:19:00,43.5,25.0,30.04,SW,227,1.0,8.0,48,0.00,,,0.00,weatherlink.com 1.10,2013-11-15 04:19:00,
2013-11-14 23:34:00,43.4,25.0,30.04,NW,323,5.0,6.0,49,0.00,,,0.00,weatherlink.com 1.10,2013-11-15 04:34:00,
2013-11-14 23:49:00,43.4,25.0,30.04,SSW,210,2.0,9.0,48,0.00,,,0.00,weatherlink.com 1.10,2013-11-15 04:49:00,